Location: Knowlton
(51.2333°N, 1.2667°E)
Time: 10:15:16
(UTC+00:00)

Exosat Rocket - Pass Details

Date: 18 April 2021
Orbit: 760 x 2515 km, 72.3° (Epoch: 16 May)

Event Time Altitude Azimuth Distance (km) Brightness Sun altitude
Rises 19:31:17 0° 331° (NNW) 4,396 8.4 -5.9°
Reaches altitude 10° 19:34:32 10° 334° (NNW) 3,169 7.6 -6.3°
Maximum altitude 19:41:38 71° 58° (ENE) 1,000 4.0 -7.3°
Drops below altitude 10° 19:46:56 10° 143° (SE) 2,399 5.5 -8.0°
Enters shadow 19:47:30 - 144° (SE) 2,622 5.7 -8.1°
